Details From KWHP - Whiteman
To KVNY - Van Nuys
Flight Number -
Tags Standard
Created
Modified
Stats Distance 35 nm / 64 km
Max Altitude 0 ft / 0 m
Waypoints 6
Social Downloads 3
Likes 0
Share VATSIM

Download

Looking for another format? Having issues loading an existing format? Contact us
Advertisement - Login to hide

Notes

Scenic flight around the valley. ILS 16R APR

Route

KWHP VPNUY SILEX TWINE KADIE KVNY

ID Type Via Altitude Latitude Longitude Leg Dist Tot Dist Heading (true) Name
O KWHP APT - 0 ft / 0 m 34.26358˚ -118.41803˚ - 0 nm - -
VPNUY FIX - 0 ft / 0 m 34.16056˚ -118.46972˚ 6 nm 6 nm 203° / 203° -
SILEX FIX - 0 ft / 0 m 34.20106˚ -118.61164˚ 7 nm 14 nm 289° / 289° -
TWINE FIX - 0 ft / 0 m 34.30969˚ -118.61648˚ 6 nm 20 nm 358° / 358° -
KADIE FIX - 0 ft / 0 m 34.35044˚ -118.50489˚ 6 nm 26 nm 66° / 66° -
O KVNY APT - 0 ft / 0 m 34.21899˚ -118.49000˚ 7 nm 34 nm 175° / 175° -

Altitude Profile

Advertisement - Login to hide

KWHP

Details ICAO KWHP (WHP)
Name WHITEMAN
Region United States
Timezone America/Los_Angeles (UTC-7.0)
Stats Elevation 1,003 ft / 306 m (AMSL)
Location 34.259285° -118.413490°
Runways 1
Magnetic Variation 12.030° E

METAR

KWHP 252350Z 13008KT 10SM OVC050 19/08 A3008

Decode

TAF

Not found

Departure Runways

ID Width Length Bearing (true) Bearing (mag) Surface Threshold Offset Overrun Length
12 75 ft / 23 m 4,164 ft / 1,269 m 138.87° 126.84° Asphalt 728 ft / 222 m 49 ft / 15 m
30 75 ft / 23 m 4,164 ft / 1,269 m 318.87° 306.84° Asphalt 479 ft / 146 m 69 ft / 21 m

KVNY

Details ICAO KVNY (VNY)
Name Van Nuys
Region United States
Timezone America/Los_Angeles (UTC-7.0)
Stats Elevation 802 ft / 244 m (AMSL)
Location 34.210723° -118.489841°
Runways 2
Magnetic Variation 12.036° E

METAR

KVNY 252351Z 27007G14KT 10SM BKN049 BKN055 21/08 A3003 RMK AO2 SLP164 T02060078 10211 20178 56016

Decode

TAF

KVNY 260003Z 2600/2624 25008KT P6SM BKN045 FM260400 VRB04KT P6SM OVC035 FM260800 13004KT P6SM BKN020 OVC035 FM261500 14008KT P6SM SCT025 BKN040 FM261900 17010KT P6SM SCT040

Decode

Destination Runways

ID Width Length Bearing (true) Bearing (mag) Surface Threshold Offset Overrun Length
16L 75 ft / 23 m 4,021 ft / 1,226 m 175.53° 163.49° Asphalt 1,430 ft / 436 m 0 ft / 0 m
16R 151 ft / 46 m 8,022 ft / 2,445 m 175.54° 163.50° Asphalt 1,430 ft / 436 m 151 ft / 46 m
34L 151 ft / 46 m 8,022 ft / 2,445 m 355.54° 343.50° Asphalt 0 ft / 0 m 151 ft / 46 m
34R 75 ft / 23 m 4,021 ft / 1,226 m 355.53° 343.49° Asphalt 0 ft / 0 m 0 ft / 0 m

Approach Navaids

Runway Type Ident Frequency Range Bearing (true) Bearing (mag) Slope Elevation
16R Localiser IVNY 111.30 MHz 18 nm / 33 km 175.54° 163.50° - 741 ft / 226 m (AMSL)
16R Glidescope IVNY 111.30 MHz 10 nm / 19 km 175.54° 163.50° 3.90° 784 ft / 239 m (AMSL)

Popular Alternatives